Weather in Gornaya Proleyka

Russia / Volgograd Oblast     49°22′24″N   44°59′14″E
temp.,
°C
wind,
m/s
gust,
m/s
humid.,
%
clouds,
%
prec.,
mm/h
press.,
hPa
HPBL,
m
25 february, thu
thu2500:00−16nw236992 0.0 1040220
03:00−16wsw117692 0.0 103960
06:00−15ssw2477100 0.0 1038209
09:00−13ssw4670100 0.0 1036392
12:00−10ssw6966100 0.0 1034573
15:00−8ssw71162100 0.0 1031768
18:00−8sw71289100 0.4 1028589
21:00−7sw91487100 0.8 1025490
26 february, fri
fri2600:00−6sw81391100 0.6 1022428
03:00−3w71391100 0.9 1020349
06:00−2w61194100 0.1 1018214
09:000w61095100 0.1 1018239
12:00+2wnw5994100 0.4 1017209
15:00+2w5896100 0.4 1017155
18:00+2w71395100 0.4 1016218
21:00+3w7139399 0.4 1015242
27 february, sat
sat2700:00+3w81593100 0.1 1013321
03:00+3w71393100 0.4 1012278
06:00+3w71292100 0.1 1010274
09:00+2w51092100 0.1 1010256
12:00+3w61189100 0.0 1009332
15:00+3w61185100 0.0 1008346
18:00+2w4991100 0.1 1008224
21:00+1w599395 0.1 1009237
28 february, sun
sun2800:00+1w6119495 0.0 1008331
03:000w6119394 0.0 1009282
06:00+1wnw6109399 0.0 1009399
09:00+1wnw698873 0.0 1011468
12:000nnw567884 0.0 1012727
15:00−1nnw557480 0.0 1013717
18:00−4nnw578068 0.0 1015325
21:00−5n568180 0.0 1018613
1 march, mon
mon100:00−7nnw5779100 0.0 1019609
03:00−7nnw577890 0.0 1021556
06:00−8nnw587822 0.0 1022554
09:00−7nnw687620 0.0 1024626
12:00−5nnw566857 0.0 1025744
15:00−4nnw676854 0.0 1025769
18:00−6nnw57720 0.0 1027632
21:00−7nnw57770 0.0 1029539